When you browse on this site, cookies collect data to enhance your experience and personalize the content and advertising you see.
Visit our Privacy Policy to learn more. By continuing to use the site, you agree to this use of cookies and data.
  • In Romania
  • List of Countries
  • For 7 days
  • Water Temperature
  • Weather Map
  • Weather Widgets
  • user-avatar
    Login

    Hourly Weather Mochudi

    Today, 13 November, Wednesday

    Time Temperature Precipitation Wind Pressure Humidity
    00:00 +23°C° 0.4 mm 4 mps 678 mmHg 74%
    01:00 +23°C° 0.4 mm 4 mps 678 mmHg 74%
    02:00 +23°C° 0.4 mm 4 mps 678 mmHg 74%
    03:00 +24°C° 0.3 mm 3 mps 677 mmHg 77%
    04:00 +22°C° 0.3 mm 3 mps 677 mmHg 80%
    05:00 +22°C° 0.3 mm 3 mps 677 mmHg 83%
    06:00 +24°C° 0 mm 3 mps 678 mmHg 80%
    07:00 +23°C° 0 mm 4 mps 678 mmHg 77%
    08:00 +25°C° 0 mm 4 mps 679 mmHg 74%
    09:00 +27°C° 0 mm 4 mps 679 mmHg 66%
    10:00 +29°C° 0 mm 4 mps 679 mmHg 58%
    11:00 +30°C° 0 mm 3 mps 679 mmHg 51%
    12:00 +31°C° 0 mm 3 mps 679 mmHg 46%
    13:00 +34°C° 0 mm 2 mps 678 mmHg 41%
    14:00 +35°C° 0 mm 2 mps 678 mmHg 36%
    15:00 +32°C° 0.3 mm 2 mps 677 mmHg 41%
    16:00 +30°C° 0.3 mm 3 mps 677 mmHg 47%
    17:00 +28°C° 0.3 mm 4 mps 676 mmHg 53%
    18:00 +27°C° 0.4 mm 4 mps 677 mmHg 55%
    19:00 +27°C° 0.4 mm 3 mps 677 mmHg 56%
    20:00 +26°C° 0.4 mm 2 mps 678 mmHg 58%
    21:00 +25°C° 0 mm 3 mps 678 mmHg 58%
    22:00 +25°C° 0 mm 3 mps 678 mmHg 58%
    23:00 +25°C° 0 mm 4 mps 678 mmHg 59%

    Tomorrow, 14 November, Thursday

    Time Temperature Precipitation Wind Pressure Humidity
    00:00 +24°C° 0 mm 3 mps 677 mmHg 62%
    01:00 +24°C° 0 mm 2 mps 677 mmHg 66%
    02:00 +23°C° 0 mm 1 mps 676 mmHg 70%
    03:00 +23°C° 0.1 mm 1 mps 676 mmHg 71%
    04:00 +21°C° 0.1 mm 0 mps 677 mmHg 73%
    05:00 +21°C° 0.1 mm 0 mps 677 mmHg 74%
    06:00 +22°C° 0.1 mm 0 mps 677 mmHg 70%
    07:00 +23°C° 0.1 mm 0 mps 678 mmHg 65%
    08:00 +27°C° 0.1 mm 1 mps 678 mmHg 61%
    09:00 +29°C° 0.2 mm 2 mps 678 mmHg 53%
    10:00 +31°C° 0.2 mm 3 mps 678 mmHg 45%
    11:00 +34°C° 0.2 mm 4 mps 678 mmHg 37%
    12:00 +34°C° 0 mm 4 mps 678 mmHg 35%
    13:00 +34°C° 0 mm 4 mps 677 mmHg 33%
    14:00 +35°C° 0 mm 5 mps 676 mmHg 31%
    15:00 +35°C° 0 mm 5 mps 676 mmHg 25%
    16:00 +35°C° 0 mm 6 mps 676 mmHg 19%
    17:00 +36°C° 0 mm 6 mps 676 mmHg 13%
    18:00 +34°C° 0 mm 5 mps 676 mmHg 15%
    19:00 +32°C° 0 mm 4 mps 676 mmHg 16%
    20:00 +29°C° 0 mm 3 mps 675 mmHg 17%
    21:00 +28°C° 0 mm 3 mps 675 mmHg 18%
    22:00 +28°C° 0 mm 2 mps 675 mmHg 19%
    23:00 +27°C° 0 mm 2 mps 676 mmHg 19%

    Day after tomorrow, 15 November, Friday

    Time Temperature Precipitation Wind Pressure Humidity
    00:00 +26°C° 0 mm 2 mps 675 mmHg 20%
    01:00 +25°C° 0 mm 2 mps 675 mmHg 21%
    02:00 +24°C° 0 mm 2 mps 674 mmHg 22%
    03:00 +23°C° 0 mm 2 mps 675 mmHg 24%
    04:00 +21°C° 0 mm 2 mps 675 mmHg 27%
    05:00 +21°C° 0 mm 1 mps 675 mmHg 29%
    06:00 +23°C° 0 mm 2 mps 675 mmHg 34%
    07:00 +24°C° 0 mm 2 mps 676 mmHg 38%
    08:00 +26°C° 0 mm 3 mps 677 mmHg 42%
    09:00 +28°C° 0 mm 2 mps 677 mmHg 37%
    10:00 +30°C° 0 mm 2 mps 677 mmHg 33%
    11:00 +32°C° 0 mm 2 mps 677 mmHg 28%
    12:00 +30°C° 0 mm 4 mps 676 mmHg 44%
    13:00 +33°C° 0 mm 3 mps 676 mmHg 37%
    14:00 +34°C° 0 mm 3 mps 675 mmHg 30%
    15:00 +34°C° 0 mm 3 mps 675 mmHg 28%
    16:00 +34°C° 0 mm 3 mps 675 mmHg 26%
    17:00 +34°C° 0 mm 3 mps 675 mmHg 24%
    18:00 +31°C° 0 mm 3 mps 675 mmHg 27%
    19:00 +30°C° 0 mm 3 mps 675 mmHg 29%
    20:00 +28°C° 0 mm 3 mps 675 mmHg 32%
    21:00 +28°C° 0 mm 3 mps 675 mmHg 36%
    22:00 +27°C° 0 mm 2 mps 675 mmHg 40%
    23:00 +26°C° 0 mm 2 mps 675 mmHg 43%

    16 November, Saturday

    Time Temperature Precipitation Wind Pressure Humidity
    00:00 +25°C° 0 mm 2 mps 675 mmHg 46%
    01:00 +25°C° 0 mm 2 mps 675 mmHg 49%
    02:00 +24°C° 0 mm 3 mps 675 mmHg 52%
    03:00 +24°C° 0 mm 3 mps 675 mmHg 58%
    04:00 +22°C° 0 mm 3 mps 675 mmHg 65%
    05:00 +22°C° 0 mm 4 mps 675 mmHg 72%
    06:00 +23°C° 0 mm 4 mps 676 mmHg 68%
    07:00 +25°C° 0 mm 4 mps 676 mmHg 64%
    08:00 +25°C° 0 mm 5 mps 677 mmHg 60%
    09:00 +27°C° 0 mm 5 mps 677 mmHg 54%
    10:00 +29°C° 0 mm 5 mps 677 mmHg 47%
    11:00 +32°C° 0 mm 4 mps 677 mmHg 40%
    12:00 +33°C° 0 mm 4 mps 677 mmHg 35%
    13:00 +34°C° 0 mm 3 mps 676 mmHg 30%
    14:00 +35°C° 0 mm 2 mps 676 mmHg 25%
    15:00 +35°C° 0 mm 2 mps 675 mmHg 25%
    16:00 +35°C° 0 mm 2 mps 675 mmHg 25%
    17:00 +35°C° 0 mm 2 mps 675 mmHg 25%
    18:00 +33°C° 0 mm 3 mps 675 mmHg 28%
    19:00 +31°C° 0 mm 3 mps 675 mmHg 31%
    20:00 +30°C° 0 mm 3 mps 674 mmHg 34%
    21:00 +29°C° 0 mm 3 mps 675 mmHg 36%
    22:00 +28°C° 0 mm 3 mps 675 mmHg 37%
    23:00 +28°C° 0 mm 3 mps 675 mmHg 39%

    17 November, Sunday

    Time Temperature Precipitation Wind Pressure Humidity
    00:00 +27°C° 0 mm 3 mps 675 mmHg 41%
    01:00 +27°C° 0 mm 3 mps 674 mmHg 43%
    02:00 +26°C° 0 mm 3 mps 674 mmHg 45%
    03:00 +25°C° 0 mm 3 mps 674 mmHg 47%
    04:00 +25°C° 0 mm 3 mps 674 mmHg 49%
    05:00 +24°C° 0 mm 3 mps 675 mmHg 51%
    06:00 +26°C° 0 mm 4 mps 675 mmHg 48%
    07:00 +27°C° 0 mm 5 mps 676 mmHg 46%
    08:00 +28°C° 0 mm 6 mps 677 mmHg 43%
    09:00 +30°C° 0 mm 6 mps 677 mmHg 39%
    10:00 +33°C° 0 mm 6 mps 677 mmHg 35%
    11:00 +35°C° 0 mm 6 mps 678 mmHg 30%
    12:00 +36°C° 0 mm 5 mps 677 mmHg 26%
    13:00 +38°C° 0 mm 4 mps 677 mmHg 23%
    14:00 +40°C° 0 mm 4 mps 676 mmHg 19%
    15:00 +40°C° 0 mm 4 mps 675 mmHg 18%
    16:00 +38°C° 0 mm 4 mps 675 mmHg 18%
    17:00 +38°C° 0 mm 4 mps 674 mmHg 18%
    18:00 +36°C° 0 mm 4 mps 674 mmHg 21%
    19:00 +34°C° 0 mm 4 mps 674 mmHg 25%
    20:00 +32°C° 0 mm 4 mps 674 mmHg 28%
    21:00 +32°C° 0 mm 5 mps 674 mmHg 30%
    22:00 +30°C° 0 mm 5 mps 675 mmHg 32%
    23:00 +30°C° 0 mm 6 mps 675 mmHg 35%

    18 November, Monday

    Time Temperature Precipitation Wind Pressure Humidity
    00:00 +29°C° 0 mm 6 mps 675 mmHg 36%
    01:00 +28°C° 0 mm 5 mps 674 mmHg 38%
    02:00 +28°C° 0 mm 5 mps 674 mmHg 40%
    03:00 +27°C° 0 mm 5 mps 674 mmHg 43%
    04:00 +27°C° 0 mm 4 mps 675 mmHg 45%
    05:00 +26°C° 0 mm 4 mps 675 mmHg 47%
    06:00 +27°C° 0 mm 4 mps 675 mmHg 47%
    07:00 +28°C° 0 mm 5 mps 676 mmHg 46%
    08:00 +28°C° 0 mm 6 mps 676 mmHg 45%
    09:00 +32°C° 0 mm 5 mps 677 mmHg 39%
    10:00 +34°C° 0 mm 5 mps 677 mmHg 32%
    11:00 +37°C° 0 mm 4 mps 677 mmHg 26%
    12:00 +39°C° 0 mm 5 mps 676 mmHg 22%
    13:00 +40°C° 0 mm 5 mps 676 mmHg 19%
    14:00 +41°C° 0 mm 6 mps 675 mmHg 16%
    15:00 +41°C° 0 mm 6 mps 675 mmHg 16%
    16:00 +41°C° 0 mm 6 mps 674 mmHg 16%
    17:00 +41°C° 0 mm 7 mps 674 mmHg 16%
    18:00 +39°C° 0.1 mm 6 mps 674 mmHg 21%
    19:00 +35°C° 0.1 mm 4 mps 674 mmHg 26%
    20:00 +33°C° 0.1 mm 3 mps 674 mmHg 31%
    21:00 +31°C° 0 mm 3 mps 674 mmHg 33%
    22:00 +30°C° 0 mm 2 mps 675 mmHg 35%
    23:00 +30°C° 0 mm 2 mps 675 mmHg 37%
    Show more